Location: Augustenthal
(51.7167°N, 10.2833°E)
Time: 18:46:29
(UTC+00:00)

Cosmos 1733 - Pass Details

Date: 18 May 2021
Orbit: 505 x 520 km, 82.5° (Epoch: 20 June)

Event Time Altitude Azimuth Distance (km) Brightness Sun altitude
Rises 22:04:51 0° 356° (N) 2,628 8.4 -16.9°
Reaches altitude 10° 22:07:09 10° 7° (N) 1,740 6.9 -17.0°
Maximum altitude 22:10:36 32° 71° (ENE) 898 4.4 -17.1°
Enters shadow 22:11:58 25° 111° (ESE) 1,076 4.5 -17.2°
